Location: Rancho Santa Fe Post Office
(33.0184°N, 117.2026°W)
Time: 03:43:00
(UTC+00:00)

Atlas Centaur 2 - Pass Details

Date: 10 September 2024
Orbit: 457 x 1270 km, 30.4° (Epoch: 09 October)

Event Time Altitude Azimuth Distance (km) Brightness Sun altitude
Exits shadow 12:57:58 - 251° (WSW) 2,542 4.0 -7.4°
Reaches altitude 10° 12:58:17 10° 251° (WSW) 2,431 3.9 -7.3°
Maximum altitude 13:04:09 65° 170° (S) 1,062 2.8 -6.1°
Drops below altitude 10° 13:11:28 10° 91° (E) 3,008 6.9 -4.6°
Sets 13:14:33 0° 88° (E) 4,064 8.4 -4.0°
